M.P.E.C. 2019-F29 Issued 2019 Mar. 19, 02:43 UT The Minor Planet Electronic Circulars contain information on unusual minor planets and routine data on comets. They are published on behalf of Division F of the International Astronomical Union by the Minor Planet Center, Smithsonian Astrophysical Observatory, Cambridge, MA 02138, U.S.A. Prepared using the Tamkin Foundation Computer Network MPC@CFA.HARVARD.EDU URL https://www.minorplanetcenter.net/ ISSN 1523-6714 2010 SB41 Revision to MPEC 2010-V89 Additional Observations: K10S41B C2010 09 14.49706 00 34 05.470-00 39 35.05 20.9 GVEF029F51 K10S41B C2010 10 14.30298 00 31 05.961-00 59 46.39 22.2 GVEF029F51 K10S41B C2010 10 14.31474 00 31 05.884-00 59 46.59 22.6 GVEF029F51 K10S41B C2011 09 26.42796 00 43 10.787+00 07 25.99 22.5 GVEF029F51 K10S41B C2011 09 26.44197 00 43 10.709+00 07 25.61 22.2 GVEF029F51 K10S41B C2011 09 26.46230 00 43 10.578+00 07 24.74 22.8 GVEF029F51 K10S41B C2011 09 26.47673 00 43 10.521+00 07 23.79 22.1 GVEF029F51 K10S41B C2011 10 19.33925 00 40 51.213-00 07 43.48 21.3 GVEF029F51 K10S41B C2011 10 19.36463 00 40 51.077-00 07 44.91 22.3 GVEF029F51 K10S41B C2011 10 19.37630 00 40 50.998-00 07 44.98 VEF029F51 K10S41B KC2012 10 07.51777 00 52 16.545+00 54 46.07 21.7 GVEF029F51 K10S41B C2012 10 15.33549 00 51 28.337+00 49 38.27 22.5 GVEF029F51 K10S41B C2012 10 15.35466 00 51 28.246+00 49 38.22 22.2 GVEF029F51 K10S41B C2012 10 15.36918 00 51 28.137+00 49 37.09 23.1 GVEF029F51 K10S41B C2012 10 15.38380 00 51 28.073+00 49 36.36 22.4 GVEF029F51 K10S41B C2012 10 23.41881 00 50 39.863+00 44 40.34 20.6 GVEF029F51 K10S41B C2012 11 05.33017 00 49 28.609+00 37 46.33 22.3 GVEF029F51 K10S41B C2013 08 17.62002 01 06 56.552+02 22 05.00 23.1 GVEF029F51 K10S41B C2013 10 02.38848 01 03 11.774+01 53 57.79 22.8 GVEF029F51 K10S41B C2013 10 02.40335 01 03 11.669+01 53 57.13 22.4 GVEF029F51 K10S41B C2013 10 02.41824 01 03 11.574+01 53 56.70 21.9 GVEF029F51 K10S41B C2013 10 02.43314 01 03 11.482+01 53 56.14 22.2 GVEF029F51 K10S41B C2013 10 22.40297 01 01 08.080+01 40 54.34 22.3 GVEF029F51 K10S41B KC2013 10 27.32807 01 00 38.775+01 37 59.59 22.6 GVEF029F51 K10S41B C2014 08 25.54032 01 16 49.908+03 13 07.33 22.5 GVEF029F51 K10S41B C2014 08 25.55395 01 16 49.856+03 13 06.88 22.9 GVEF029F51 K10S41B C2014 08 25.56761 01 16 49.802+03 13 06.40 22.4 GVEF029F51 K10S41B C2014 08 25.58135 01 16 49.765+03 13 06.10 22.5 GVEF029F51 K10S41B C2014 08 26.55702 01 16 46.275+03 12 36.08 22.7 GVEF029F51 K10S41B C2014 08 26.56915 01 16 46.227+03 12 35.59 22.3 GVEF029F51 K10S41B C2014 08 26.58537 01 16 46.166+03 12 35.33 23.8 GVEF029F51 K10S41B KC2014 09 07.47314 01 15 56.214+03 05 52.97 22.2 GVEF029F51 K10S41B C2014 09 19.48668 01 14 54.103+02 58 16.73 23.1 GVEF029F51 K10S41B C2014 09 19.49911 01 14 54.036+02 58 16.17 22.4 GVEF029F51 K10S41B C2014 10 13.44070 01 12 29.534+02 42 14.97 23.0 GVEF029F51 K10S41B KC2014 10 25.36223 01 11 15.599+02 34 44.21 22.1 GVEF029F51 K10S41B KC2014 11 11.39275 01 09 38.782+02 25 40.53 22.0 GVEF029F51 K10S41B C2014 11 20.36293 01 08 55.507+02 22 00.45 22.2 GVEF029F51 K10S41B C2014 11 20.37588 01 08 55.453+02 22 00.40 22.3 GVEF029F51 K10S41B C2014 11 20.38876 01 08 55.382+02 22 00.15 22.3 GVEF029F51 K10S41B C2014 11 20.40168 01 08 55.318+02 22 00.01 21.9 GVEF029F51 K10S41B C2014 11 22.30043 01 08 47.062+02 21 20.44 22.6 GVEF029F51 K10S41B C2014 11 22.31438 01 08 46.997+02 21 20.07 22.9 GVEF029F51 K10S41B C2014 11 22.32722 01 08 46.954+02 21 19.39 22.8 GVEF029F51 K10S41B C2014 11 22.34010 01 08 46.936+02 21 19.24 22.1 GVEF029F51 K10S41B C2014 12 18.25967 01 07 33.063+02 17 03.18 22.5 GVEF029F51 K10S41B C2014 12 18.28391 01 07 33.042+02 17 02.98 22.9 GVEF029F51 K10S41B C2014 12 18.29605 01 07 33.019+02 17 03.05 23.3 GVEF029F51 K10S41B C2015 01 08.21740 01 07 35.289+02 20 28.80 23.0 GVEF029F51 K10S41B C2015 01 08.21806 01 07 35.269+02 20 28.37 22.6 GVEF029F51 K10S41B C2015 01 08.22981 01 07 35.312+02 20 28.97 22.9 GVEF029F51 K10S41B C2015 01 08.23047 01 07 35.283+02 20 28.82 22.8 GVEF029F51 K10S41B C2015 01 08.24219 01 07 35.309+02 20 29.00 22.7 GVEF029F51 K10S41B C2015 01 08.24285 01 07 35.301+02 20 29.11 22.2 GVEF029F51 K10S41B C2015 01 08.25456 01 07 35.287+02 20 29.48 22.5 GVEF029F51 K10S41B C2015 01 08.25523 01 07 35.329+02 20 29.51 22.6 GVEF029F51 K10S41B KC2015 06 23.59434 01 26 34.846+04 15 48.04 22.7 GVEF029F51 K10S41B C2015 08 12.58581 01 27 44.575+04 13 14.88 22.3 GVEF029F51 K10S41B KC2015 08 14.56501 01 27 40.888+04 12 31.30 22.4 GVEF029F51 K10S41B C2015 09 11.50916 01 26 03.107+03 58 32.03 22.2 GVEF029F51 K10S41B C2015 09 11.52085 01 26 03.050+03 58 31.43 22.4 GVEF029F51 K10S41B C2015 09 11.53220 01 26 02.958+03 58 30.75 21.5 GVEF029F51 K10S41B C2015 10 16.38220 01 22 40.379+03 35 50.99 VEF029F51 K10S41B C2015 10 16.39339 01 22 40.306+03 35 50.40 22.3 GVEF029F51 K10S41B C2015 10 18.40417 01 22 27.624+03 34 32.90 22.5 GVEF029F51 K10S41B C2015 10 18.41535 01 22 27.548+03 34 32.68 22.0 GVEF029F51 K10S41B C2015 10 18.43775 01 22 27.409+03 34 31.62 22.3 GVEF029F51 K10S41B C2015 10 21.41048 01 22 08.703+03 32 39.05 22.1 GVEF029F51 K10S41B C2015 10 21.42181 01 22 08.622+03 32 38.40 21.7 GVEF029F51 K10S41B C2015 10 21.43311 01 22 08.582+03 32 38.23 22.2 GVEF029F51 K10S41B C2015 10 23.43263 01 21 56.082+03 31 23.42 22.4 GVEF029F51 K10S41B C2015 10 23.43461 01 21 56.040+03 31 23.57 22.4 GVEF029F51 K10S41B C2015 10 23.44333 01 21 56.011+03 31 23.47 21.2 GVEF029F51 K10S41B C2015 10 23.44561 01 21 55.985+03 31 23.13 22.2 GVEF029F51 K10S41B C2015 10 23.45414 01 21 55.923+03 31 23.18 22.5 GVEF029F51 K10S41B C2015 10 23.45608 01 21 55.925+03 31 22.76 22.2 GVEF029F51 K10S41B C2015 10 23.46492 01 21 55.861+03 31 22.29 21.3 GVEF029F51 K10S41B C2015 10 23.46686 01 21 55.838+03 31 22.28 22.2 GVEF029F51 K10S41B C2015 10 23.50514 01 21 55.608+03 31 20.63 21.8 GVEF029F51 K10S41B C2015 11 02.41166 01 20 55.220+03 25 33.27 21.8 GVEF029F51 K10S41B C2015 11 02.42352 01 20 55.144+03 25 32.69 23.1 GVEF029F51 K10S41B C2015 11 02.43530 01 20 55.096+03 25 32.34 22.9 GVEF029F51 K10S41B C2015 11 02.44712 01 20 54.985+03 25 32.19 22.8 GVEF029F51 K10S41B C2015 11 03.32152 01 20 49.878+03 25 03.25 22.3 GVEF029F51 K10S41B C2015 11 03.33456 01 20 49.803+03 25 02.71 22.0 GVEF029F51 K10S41B C2015 11 03.34771 01 20 49.730+03 25 02.26 22.4 GVEF029F51 K10S41B C2015 11 03.36088 01 20 49.648+03 25 01.73 23.7 GVEF029F51 K10S41B C2015 12 07.26571 01 18 12.317+03 12 21.39 22.4 GVEF029F51 K10S41B C2015 12 07.27765 01 18 12.277+03 12 21.13 22.3 GVEF029F51 K10S41B C2015 12 07.28958 01 18 12.249+03 12 21.03 22.5 GVEF029F51 K10S41B C2015 12 07.30150 01 18 12.217+03 12 20.85 22.2 GVEF029F51 K10S41B C2016 01 01.23243 01 17 35.734+03 12 23.71 22.6 GVEF029F51 K10S41B C2016 01 01.24369 01 17 35.727+03 12 24.13 22.4 GVEF029F51 K10S41B C2016 01 01.25490 01 17 35.723+03 12 24.25 22.1 GVEF029F51 K10S41B C2016 01 01.26605 01 17 35.728+03 12 24.16 22.1 GVEF029F51 K10S41B C2016 08 02.56430 01 38 11.613+05 09 28.22 22.4 GVEF029F51 K10S41B C2016 08 02.57748 01 38 11.604+05 09 28.12 22.6 GVEF029F51 K10S41B C2016 08 02.59069 01 38 11.602+05 09 27.96 22.5 GVEF029F51 K10S41B C2016 08 02.60399 01 38 11.594+05 09 27.73 22.7 GVEF029F51 K10S41B C2016 08 27.50721 01 37 27.129+05 00 39.21 22.8 GVEF029F51 K10S41B C2016 08 27.51919 01 37 27.099+05 00 38.76 22.3 GVEF029F51 K10S41B C2016 08 27.53114 01 37 27.052+05 00 38.70 22.5 GVEF029F51 K10S41B C2016 08 27.54315 01 37 27.041+05 00 38.46 22.3 GVEF029F51 K10S41B C2016 09 30.48112 01 34 44.790+04 40 45.08 22.5 GVEF029F51 K10S41B C2016 09 30.49235 01 34 44.730+04 40 44.52 22.3 GVEF029F51 K10S41B C2016 09 30.50362 01 34 44.645+04 40 44.29 22.7 GVEF029F51 K10S41B C2016 09 30.51485 01 34 44.619+04 40 43.68 22.2 GVEF029F51 K10S41B C2016 12 28.27605 01 27 48.502+04 05 38.70 22.6 GVEF029F51 K10S41B C2017 07 30.58673 01 48 28.263+06 02 48.66 22.8 GVEF029F51 K10S41B C2017 07 30.59607 01 48 28.257+06 02 48.57 22.4 GVEF029F51 K10S41B C2017 07 30.60541 01 48 28.270+06 02 48.60 22.4 GVEF029F51 K10S41B C2017 07 30.61485 01 48 28.273+06 02 48.59 22.4 GVEF029F51 K10S41B C2017 08 31.56177 01 47 40.918+05 52 27.33 22.0 GVEF029F51 K10S41B C2017 08 31.57454 01 47 40.874+05 52 26.91 22.1 GVEF029F51 K10S41B C2017 08 31.58729 01 47 40.818+05 52 26.56 22.1 GVEF029F51 K10S41B C2017 08 31.60013 01 47 40.771+05 52 26.21 22.4 GVEF029F51 K10S41B C2017 09 17.48244 01 46 29.551+05 43 17.93 22.6 GVEF029F51 K10S41B C2017 09 17.49384 01 46 29.505+05 43 17.56 22.7 GVEF029F51 K10S41B C2017 09 17.49449 01 46 29.519+05 43 17.72 22.3 GVEF029F51 K10S41B C2017 09 17.50596 01 46 29.422+05 43 17.07 23.0 GVEF029F51 K10S41B C2017 09 17.50660 01 46 29.429+05 43 17.08 22.7 GVEF029F51 K10S41B C2017 09 17.51808 01 46 29.375+05 43 17.16 22.4 GVEF029F51 K10S41B C2017 09 17.51872 01 46 29.373+05 43 16.79 23.0 GVEF029F51 K10S41B C2017 10 11.41492 01 44 12.271+05 28 14.57 22.3 GVEF029F51 K10S41B C2017 11 13.32606 01 40 48.020+05 09 07.33 22.7 GVEF029F51 K10S41B C2017 11 13.33927 01 40 47.948+05 09 06.96 22.7 GVEF029F51 K10S41B C2017 11 13.35248 01 40 47.866+05 09 06.38 22.3 GVEF029F51 K10S41B C2017 11 13.36572 01 40 47.773+05 09 06.15 22.8 GVEF029F51 K10S41B C2017 11 20.31023 01 40 09.958+05 06 00.62 22.4 GVEF029F51 K10S41B C2017 11 20.32210 01 40 09.892+05 06 00.88 22.9 GVEF029F51 K10S41B C2017 11 20.33395 01 40 09.790+05 06 00.83 23.6 GVEF029F51 K10S41B C2018 02 03.23384 01 38 59.384+05 10 35.82 22.0 GVEF029F51 K10S41B C2018 02 03.24609 01 38 59.429+05 10 36.21 22.7 GVEF029F51 K10S41B C2018 02 03.25833 01 38 59.464+05 10 36.67 23.2 GVEF029F51 K10S41B C2018 02 03.27056 01 38 59.544+05 10 37.67 23.0 GVEF029F51 K10S41B KC2018 08 19.57976 01 58 38.616+06 50 13.01 22.9 GVEF029F51 K10S41B C2018 08 22.56171 01 58 33.151+06 49 10.00 22.1 GVEF029F51 K10S41B C2018 08 22.58662 01 58 33.115+06 49 09.33 22.3 GVEF029F51 K10S41B C2018 08 22.59913 01 58 33.095+06 49 09.38 23.2 GVEF029F51 K10S41B C2019 01 01.21985 01 48 20.303+05 52 18.15 22.5 GVEF029F51 K10S41B C2019 01 01.22307 01 48 20.311+05 52 18.15 22.4 GVEF029F51 K10S41B C2019 01 01.23124 01 48 20.311+05 52 18.17 22.1 GVEF029F51 K10S41B C2019 01 01.23446 01 48 20.302+05 52 17.92 22.2 GVEF029F51 K10S41B C2019 01 01.24261 01 48 20.275+05 52 18.47 22.0 GVEF029F51 K10S41B C2019 01 01.24583 01 48 20.302+05 52 18.02 22.2 GVEF029F51 K10S41B C2019 01 01.25394 01 48 20.293+05 52 18.31 22.4 GVEF029F51 K10S41B C2019 01 01.25717 01 48 20.294+05 52 18.07 21.4 GVEF029F51 Observer details: F51 Pan-STARRS 1, Haleakala. Observers J. Bulger, K. Chambers, B. Gibson, T. Goggia, T. Lowe, E. Magnier, N. Primak, A. Schultz, J. Thiel, S. Watters, M. Willman. Measurers S. Chastel, M. Huber, R. Jedicke, R. Wainscoat, R. Weryk. 1.8-m Ritchey-Chretien + CCD. Orbital elements: 2010 SB41 Epoch 2019 Apr. 27.0 TT = JDT 2458600.5 MPC M 1.16446 (2000.0) P Q n 0.00398832 Peri. 248.42179 +0.88093233 -0.46953787 a 39.3800466 Node 139.51821 +0.46086046 +0.82279042 e 0.2785669 Incl. 5.22281 +0.10754471 +0.32023447 P 247 H 8.1 G 0.15 U 1 Residuals in seconds of arc 100914 F51 0.1- 0.4+ 141120 F51 0.1+ 0.1+ 160101 F51 0.0 0.0 100915 F51 0.0 0.1- 141120 F51 0.0 0.2+ 160101 F51 0.0 0.2- 100916 F51 0.1+ 0.0 141122 F51 0.0 0.1+ 160802 F51 0.0 0.0 100916 F51 0.1- 0.1- 141122 F51 0.0 0.0 160802 F51 0.0 0.0 100916 F51 0.4+ 0.2- 141122 F51 0.2+ 0.4- 160802 F51 0.0 0.0 101004 F51 0.0 0.0 141122 F51 0.7+ 0.3- 160802 F51 0.0 0.0 101004 F51 0.2+ 0.0 141218 F51 0.4- 0.2+ 160827 F51 0.3- 0.3- 101004 F51 0.1+ 0.0 141218 F51 0.2- 0.0 160827 F51 0.2- 0.4- 101004 F51 0.3+ 0.4+ 141218 F51 0.3- 0.1+ 160827 F51 0.3- 0.1- 101014 F51 0.2+ 0.1- 150108 F51 0.2+ 0.2+ 160827 F51 0.2+ 0.0 101014 F51 0.1+ 0.1+ 150108 F51 0.1- 0.3- 160930 F51 0.0 0.1- 101101 D35 0.0 0.3+ 150108 F51 0.3+ 0.1+ 160930 F51 0.1+ 0.2- 101101 D35 0.2- 0.7+ 150108 F51 0.1- 0.0 160930 F51 0.1- 0.0 101101 D35 0.2+ 0.6+ 150108 F51 0.0 0.1- 160930 F51 0.5+ 0.2- 101101 D35 0.3+ 0.1+ 150108 F51 0.1- 0.0 161228 F51 0.1+ 0.2- 101114 568 0.3- 0.2+ 150108 F51 0.6- 0.2+ 170730 F51 0.0 0.0 101202 688 0.2+ 0.1+ 150108 F51 0.0 0.2+ 170730 F51 0.2- 0.0 101202 688 1.1- 0.8+ 150623 F51 0.1- 0.0 170730 F51 0.0 0.1+ 110926 F51 0.1+ 0.2- 150812 F51 0.2+ 0.1+ 170730 F51 0.1- 0.2+ 110926 F51 0.2+ 0.0 150814 F51 0.1+ 0.3- 170831 F51 0.2+ 0.1+ 110926 F51 0.1+ 0.0 150911 F51 0.0 0.0 170831 F51 0.2+ 0.0 110926 F51 0.6+ 0.4- 150911 F51 0.0 0.2- 170831 F51 0.1+ 0.0 111019 F51 0.0 0.2+ 150911 F51 0.5- 0.4- 170831 F51 0.0 0.0 111019 F51 0.3+ 0.3- 151016 F51 0.0 0.2+ 170917 F51 0.1- 0.1- 111019 F51 0.1+ 0.1+ 151016 F51 0.0 0.0 170917 F51 0.1+ 0.1- 121007 F51 0.1+ 0.2- 151018 F51 0.0 0.0 170917 F51 0.3+ 0.1+ 121015 F51 0.4- 0.4- 151018 F51 0.0 0.2+ 170917 F51 0.3- 0.1- 121015 F51 0.0 0.3+ 151018 F51 0.1+ 0.0 170917 F51 0.1- 0.1- 121015 F51 0.3- 0.2- 151021 F51 0.2- 0.1+ 170917 F51 0.0 0.4+ 121015 F51 0.1+ 0.4- 151021 F51 0.3- 0.1- 170917 F51 0.0 0.0 121023 F51 0.3- 0.3- 151021 F51 0.2+ 0.1+ 171011 F51 0.7- 0.3- 121105 F51 0.1+ 0.1+ 151023 F51 0.2+ 0.3- 171113 F51 0.1+ 0.1+ 130817 F51 0.0 0.4- 151023 F51 0.2- 0.0 171113 F51 0.2+ 0.1+ 131002 F51 0.2+ 0.0 151023 F51 0.2+ 0.2+ 171113 F51 0.1+ 0.1- 131002 F51 0.1+ 0.1- 151023 F51 0.0 0.1- 171113 F51 0.2- 0.0 131002 F51 0.0 0.1+ 151023 F51 0.1- 0.3+ 171120 F51 0.1+ 0.4- 131002 F51 0.1+ 0.1+ 151023 F51 0.1+ 0.1- 171120 F51 0.0 0.1+ 131022 F51 0.2+ 0.2+ 151023 F51 0.0 0.2- 171120 F51 0.6- 0.4+ 131027 F51 0.1- 0.0 151023 F51 0.2- 0.1- 180203 F51 0.1+ 0.1- 140825 F51 0.1+ 0.1- 151023 F51 0.0 0.4- 180203 F51 0.1+ 0.1- 140825 F51 0.0 0.1- 151102 F51 0.2- 0.1+ 180203 F51 0.1- 0.1- 140825 F51 0.0 0.2- 151102 F51 0.3- 0.1- 180203 F51 0.4+ 0.6+ 140825 F51 0.2+ 0.0 151102 F51 0.1+ 0.0 180819 F51 0.0 0.1+ 140826 F51 0.2+ 0.1+ 151102 F51 0.5- 0.2+ 180822 F51 0.2- 0.0 140826 F51 0.2+ 0.0 151103 F51 0.0 0.0 180822 F51 0.1+ 0.1- 140826 F51 0.2+ 0.2+ 151103 F51 0.0 0.1- 180822 F51 0.2+ 0.2+ 140907 F51 0.3- 0.1- 151103 F51 0.1+ 0.1- 190101 F51 0.3- 0.3+ 140919 F51 0.1- 0.1+ 151103 F51 0.1+ 0.2- 190101 F51 0.1- 0.3+ 140919 F51 0.1- 0.1+ 151207 F51 0.0 0.1+ 190101 F51 0.0 0.3+ 141013 F51 0.2+ 0.1- 151207 F51 0.0 0.0 190101 F51 0.0 0.0 141025 F51 0.3+ 0.3- 151207 F51 0.1+ 0.0 190101 F51 0.3- 0.5+ 141111 F51 0.1- 0.1+ 151207 F51 0.2+ 0.0 190101 F51 0.1+ 0.0 141120 F51 0.2+ 0.2- 160101 F51 0.2+ 0.3- 190101 F51 0.1+ 0.3+ 141120 F51 0.3+ 0.1+ 160101 F51 0.1+ 0.0 190101 F51 0.2+ 0.0 Ephemeris: 2010 SB41 a,e,i = 39.38, 0.28, 5 q = 28.410 Date TT R. A. (2000) Decl. Delta r Elong. Phase V 2019 02 17 01 50 05.8 +06 10 11 28.8918 28.4126 60.1 1.7 22.9 ... 2019 03 04 01 51 36.7 +06 20 42 29.0987 28.4130 45.5 1.4 22.9 ... 2019 03 12 01 52 34.1 +06 26 56 29.1912 28.4132 37.8 1.2 22.9 ... 2019 03 18 01 53 20.5 +06 31 48 29.2510 28.4133 32.1 1.1 22.9 2019 03 19 01 53 28.5 +06 32 37 29.2602 28.4133 31.2 1.0 22.9 2019 03 20 01 53 36.5 +06 33 27 29.2691 28.4134 30.2 1.0 22.9 ... 2019 03 26 01 54 26.1 +06 38 29 29.3173 28.4135 24.6 0.8 22.8 ... 2019 04 03 01 55 35.2 +06 45 18 29.3671 28.4137 17.2 0.6 22.8 ... 2019 04 18 01 57 50.6 +06 58 03 29.4135 28.4142 5.3 0.2 22.8 A. U. Tomatic (C) Copyright 2019 MPC M.P.E.C. 2019-F29
